Location: Mountain View
(37.3861°N, 122.0839°W)
Time: 14:55:51
(UTC-07:00)

ISS - Visible Passes

Search period start: 24 April 2019 00:00
Search period end: 04 May 2019 00:00
Orbit: 408 x 410 km, 51.6° (Epoch: 25 April)

Date Brightness Start Highest point End Pass type
(mag) Time Alt. Az. Time Alt. Az. Time Alt. Az.
26 Apr -2.2 05:46:19 10° SSW 05:49:16 30° SE 05:52:13 10° ENE visible
27 Apr -1.3 04:56:31 10° SSE 04:58:36 16° SE 05:00:41 10° E visible
28 Apr -3.8 05:40:44 10° SW 05:44:02 89° NW 05:47:21 10° NE visible
29 Apr -3.0 04:51:55 28° S 04:53:14 44° SE 04:56:24 10° ENE visible
30 Apr -1.7 04:03:09 21° ESE 04:03:09 21° ESE 04:05:07 10° ENE visible
30 Apr -2.7 05:35:54 10° W 05:38:56 33° NNW 05:41:59 10° NNE visible
01 May -3.6 04:47:02 40° W 04:47:59 62° NW 04:51:16 10° NE visible
02 May -2.5 03:58:06 40° ENE 03:58:06 40° ENE 04:00:23 10° NE visible
02 May -1.6 05:31:39 10° WNW 05:33:57 17° NNW 05:36:16 10° NNE visible
03 May -0.5 03:09:05 11° ENE 03:09:05 11° ENE 03:09:16 10° ENE visible
03 May -2.2 04:41:49 22° WNW 04:42:51 26° NNW 04:45:43 10° NNE visible
